This is the latest recevied weather packets stored in our database for station/object N3EDS. If no packets are shown the sender has not sent any weather packets the latest 10 day(s).
| Time | Temp. | Humidity | Pressure | Rain* | Wind** | Luminosity | Snow |
|---|---|---|---|---|---|---|---|
| 1777594251 | 6.11° C | 86% | 1014.2 hPa | 0 mm | - | 2 W/m² | - |
| 1777593946 | 6.11° C | 87% | 1014.4 hPa | 0 mm | - | 1 W/m² | - |
| 1777593643 | 6.11° C | 85% | 1014.1 hPa | 0 mm | - | 3 W/m² | - |
| 1777593339 | 6.11° C | 86% | 1014 hPa | 0 mm | - | 6 W/m² | - |
| 1777593033 | 6.11° C | 87% | 1013.9 hPa | 0 mm | - | 11 W/m² | - |
| 1777592732 | 6.11° C | 86% | 1013.9 hPa | 0 mm | - | 14 W/m² | - |
| 1777592428 | 6.11° C | 83% | 1014 hPa | 0 mm | - | 17 W/m² | - |
| 1777592124 | 6.11° C | 83% | 1013.9 hPa | 0 mm | - | 19 W/m² | - |
| 1777591822 | 6.67° C | 81% | 1013.8 hPa | 0 mm | - | 18 W/m² | - |
| 1777591517 | 6.67° C | 80% | 1013.9 hPa | 0 mm | - | 22 W/m² | - |
| 1777591214 | 6.67° C | 81% | 1013.6 hPa | 0 mm | - | 28 W/m² | - |
| 1777590909 | 6.67° C | 83% | 1014 hPa | 0 mm | - | 37 W/m² | - |
| 1777590605 | 6.67° C | 81% | 1013.9 hPa | 0 mm | - | 40 W/m² | - |
| 1777590301 | 6.67° C | 82% | 1013.8 hPa | 0 mm | - | 47 W/m² | - |
| 1777589999 | 6.67° C | 82% | 1013.9 hPa | 0 mm | - | 42 W/m² | - |
| 1777589694 | 6.67° C | 81% | 1014 hPa | 0 mm | - | 34 W/m² | - |
| 1777589393 | 6.67° C | 82% | 1013.9 hPa | 0 mm | - | 34 W/m² | - |
| 1777589089 | 6.67° C | 80% | 1013.8 hPa | 0 mm | - | 31 W/m² | - |
| 1777588785 | 6.67° C | 81% | 1013.8 hPa | 0 mm | - | 39 W/m² | - |
| 1777588480 | 7.22° C | 79% | 1013.9 hPa | 0 mm | - | 50 W/m² | - |
| 1777588176 | 7.22° C | 79% | 1014 hPa | 0 mm | - | 48 W/m² | - |
| 1777587872 | 7.22° C | 80% | 1014.3 hPa | 0 mm | - | 108 W/m² | - |
| 1777587567 | 6.67° C | 81% | 1014.1 hPa | 0 mm | - | 75 W/m² | - |
| 1777587263 | 6.67° C | 82% | 1013.7 hPa | 0 mm | - | 77 W/m² | - |
| 1777586958 | 6.67° C | 81% | 1013.9 hPa | 0 mm | - | 90 W/m² | - |
* Rain latest hour (hover to see other rain measurements)
** Current wind speed in m/s (hover to see current wind gust speed)